This is the latest recevied weather packets stored in our database for station/object KJ4RDP-13. If no packets are shown the sender has not sent any weather packets the latest 10 day(s).
| Time | Temp. | Humidity | Pressure | Rain* | Wind** | Luminosity | Snow |
|---|---|---|---|---|---|---|---|
| 1777849154 | 19.44° C | 39% | 1015.2 hPa | 0 mm | - | 125 W/m² | - |
| 1777848850 | 19.44° C | 39% | 1014.9 hPa | 0 mm | - | 144 W/m² | - |
| 1777848546 | 20° C | 38% | 1014.9 hPa | 0 mm | - | 163 W/m² | - |
| 1777848243 | 19.44° C | 39% | 1014.9 hPa | 0 mm | - | 181 W/m² | - |
| 1777847941 | 18.89° C | 39% | 1015.2 hPa | 0 mm | - | 168 W/m² | - |
| 1777847639 | 19.44° C | 40% | 1015.2 hPa | 0 mm | - | 195 W/m² | - |
| 1777847334 | 20° C | 40% | 1015.2 hPa | 0 mm | - | 223 W/m² | - |
| 1777847033 | 18.89° C | 39% | 1014.9 hPa | 0 mm | - | 233 W/m² | - |
| 1777846730 | 19.44° C | 39% | 1015.2 hPa | 0 mm | - | 252 W/m² | - |
| 1777846429 | 19.44° C | 40% | 1015.2 hPa | 0 mm | - | 267 W/m² | - |
| 1777846124 | 19.44° C | 39% | 1015.2 hPa | 0 mm | - | 286 W/m² | - |
| 1777845821 | 18.89° C | 40% | 1014.9 hPa | 0 mm | - | 303 W/m² | - |
| 1777845513 | 18.89° C | 40% | 1015.2 hPa | 0 mm | - | 312 W/m² | - |
| 1777845210 | 18.89° C | 40% | 1015.2 hPa | 0 mm | - | 318 W/m² | - |
| 1777844907 | 18.89° C | 40% | 1015.2 hPa | 0 mm | - | 339 W/m² | - |
| 1777844604 | 18.89° C | 39% | 1015.2 hPa | 0 mm | - | 360 W/m² | - |
| 1777844302 | 18.33° C | 40% | 1015.2 hPa | 0 mm | - | 379 W/m² | - |
| 1777843999 | 19.44° C | 41% | 1015.7 hPa | 0 mm | - | 384 W/m² | - |
| 1777843696 | 19.44° C | 39% | 1015.2 hPa | 0 mm | - | 406 W/m² | - |
| 1777843394 | 18.89° C | 42% | 1015.7 hPa | 0 mm | - | 419 W/m² | - |
| 1777843091 | 18.89° C | 39% | 1015.7 hPa | 0 mm | - | 439 W/m² | - |
| 1777842788 | 19.44° C | 39% | 1015.7 hPa | 0 mm | - | 448 W/m² | - |
| 1777842487 | 19.44° C | 39% | 1015.2 hPa | 0 mm | - | 462 W/m² | - |
| 1777842185 | 18.89° C | 39% | 1015.7 hPa | 0 mm | - | 475 W/m² | - |
| 1777841880 | 18.33° C | 40% | 1015.7 hPa | 0 mm | - | 488 W/m² | - |
* Rain latest hour (hover to see other rain measurements)
** Current wind speed in m/s (hover to see current wind gust speed)